Regional Weather Roundup
Issued by NWS Sterling, VA

Home | Current Version | Previous Version | Graphics & Text | Print | Product List | Glossary On
Versions: 1 2 3 4 5 6 7 8 9 10 11 12 13 14 15 16 17 18 19 20 21 22 23 24 25 26 27 28 29 30 31 32 33 34 35 36 37 38 39 40 41 42 43 44 45 46 47 48 49 50
945
ASUS41 KLWX 232211
RWRLWX

REGIONAL WEATHER ROUNDUP
NATIONAL WEATHER SERVICE BALTIMORE MD/WASHINGTON DC
600 PM EDT FRI JUN 23 2017

Note: "FAIR" indicates few or no clouds below 12,000 feet
with no significant weather and/or obstructions to visibility.
 TC=TEMPERATURE CELSIUS

 * =Non NWS site. Station does not report precipitation (e.g. rain,
    snow, etc.), thunder, or fog.

DCZ001-MDZ009-015-VAZ040>042-051-053>054-232300-
WASHINGTON METRO

CITY           SKY/WX    TMP DP  RH WIND       PRES   REMARKS
WASHINGTON NAT CLOUDY    86  76  71 SW15G25   29.71F HX  96
DULLES         PTSUNNY   84  69  60 SW16G24   29.71F
ANDREWS AFB    CLOUDY    84  74  71 SW21      29.72S HX  91
FT BELVOIR     CLOUDY    85  74  71 S6        29.71F HX  92
QUANTICO       LGT RAIN  87  75  67 SW10G22   29.72F HX  96
COLLEGE PARK*  CLOUDY    84  74  70 S10G16    29.70F HX  91
LEESBURG*      CLOUDY   N/A N/A N/A SW14G21   29.72S
MANASSAS*      CLOUDY    86  75  69 SW13      29.72F HX  95
GAITHERSBURG*  CLOUDY    84  73  69 S10G17    29.72F HX  90

$$

MDZ006>007-011-014-232300-
BALTIMORE METRO

CITY           SKY/WX    TMP DP  RH WIND       PRES   REMARKS
BWI AIRPORT    CLOUDY    84  74  71 SW15G24   29.68F HX  91
MD SCIENCE CTR   N/A     86  73  65 MISG      29.68F HX  93
MARTIN STATE   PTSUNNY   84  75  74 SW13G21   29.70F HX  92
ANNAPOLIS      CLOUDY    85  77  77 SW10G20   29.70F HX  95
FORT MEADE*    PTSUNNY   81  72  74 SW16G24   29.72F

$$

MDZ012-015-019>023-232300-
MARYLAND EASTERN SHORE

CITY           SKY/WX    TMP DP  RH WIND       PRES   REMARKS
OCEAN CITY     CLOUDY    81  74  79 SW10G18   29.76F
SALISBURY      CLOUDY    87  77  72 S14       29.74F HX  99
BAY BRIDGE AP* CLOUDY    84  75  74 SW12G21   29.70F HX  92
CAMBRIDGE*     SUNNY     86  75  70 SW9       29.73F HX  95
EASTON*        PTSUNNY   86  73  66 SW10      29.76F HX  93

$$

MDZ017>025-232300-
SOUTHERN MARYLAND

CITY           SKY/WX    TMP DP  RH WIND       PRES   REMARKS
PATUXENT RIVER PTSUNNY   88  73  61 SW15G22   29.73F HX  95
ST INIGOES     MOSUNNY   87  74  64 SW16      29.74F HX  95
LEONARDTOWN*   SUNNY     86  72  62 SW9       29.75F HX  92

$$

MDZ003>005-232300-
NORTH CENTRAL MARYLAND

CITY           SKY/WX    TMP DP  RH WIND       PRES   REMARKS
FREDERICK*     PTSUNNY   84  70  61 SW20      29.71F
HAGERSTOWN APT MOSUNNY   86  71  60 SW14G24   29.67S HX  91
WESTMINSTER*   CLOUDY    86  73  66 S16G29    29.70S HX  93

$$

MDZ501>502-232300-
WESTERN MARYLAND

CITY           SKY/WX    TMP DP  RH WIND       PRES   REMARKS
OAKLAND*       NOT AVBL
CUMBERLAND*    CLOUDY    84  64  51 SW15G21   29.72R

$$

VAZ025>031-232300-
SHENANDOAH VALLEY

CITY           SKY/WX    TMP DP  RH WIND       PRES   REMARKS
WINCHESTER*    MOSUNNY   82  68  61 S10       29.71S
FRONT ROYAL*   MOSUNNY   84  70  61 S7G20     29.70F
LURAY*         MOSUNNY   86  68  54 SW17G23   29.74F
NEW MARKET*    PTSUNNY   84  67  56 S12G25    29.72F
STAUNTON*      PTSUNNY   82  69  64 SW16      29.80F
WAYNESBORO*    SUNNY     83  71  66 SW13G21   29.81F

$$

WVZ021-048>050-054>055-232300-
EASTERN WEST VIRGINIA PANHANDLE

CITY           SKY/WX    TMP DP  RH WIND       PRES   REMARKS
MARTINSBURG    MOSUNNY   82  69  64 S12G23    29.68R
PETERSBURG*    SUNNY     89  66  47 SW9G17    29.71F HX  91

$$

VAZ036>039-050-232300-
CENTRAL FOOTHILLS

CITY           SKY/WX    TMP DP  RH WIND       PRES   REMARKS
CHARLOTTESVILL MOSUNNY   85  73  67 SW12G20   29.75F HX  91
CULPEPER*      CLOUDY    87  75  66 S10G17    29.73F HX  97
ORANGE*        CLOUDY    86  73  66 S10G18    29.75S HX  93
GORDONSVILLE*  MOSUNNY   86  74  68 SW10G16   29.75S HX  94
WARRENTON*     CLOUDY    88  71  56 S12G18    29.72F HX  94

$$

VAZ055>057-232300-
NORTH AND CENTRAL PIEDMONT

CITY           SKY/WX    TMP DP  RH WIND       PRES   REMARKS
FREDERICKSBRG* MOSUNNY   88  74  63 SW20      29.73S HX  97
STAFFORD*      MOSUNNY   85  74  70 SW10G20   29.77S HX  92

$$

NCZ024-NYZ072-PAZ021-071-VAZ022-071-232300-
OTHER REGIONAL OBSERVATIONS

CITY           SKY/WX    TMP DP  RH WIND       PRES   REMARKS
NEW YORK CITY  PTSUNNY   83  72  69 VRB3      29.68F
PHILADELPHIA   PTSUNNY   87  73  62 SW20G28   29.66F HX  94
PITTSBURGH     CLOUDY    70  67  90 S7        29.65F
ROANOKE        PTSUNNY   85  72  65 SE8       29.82F HX  91
RICHMOND       MOSUNNY   88  74  63 S18       29.77F HX  96
RALEIGH        PTSUNNY   90  70  51 SW18G24   29.86F HX  95

$$

ANZ530>537-232300-
MARINE OBSERVATIONS

STATION/POSITION TIME  TEMP    WIND        PRES
                       AIR SEA DIR/SP/G
                 (UTC) (F)     (DEG/KT/KT) (MB)
THOMAS PT LIGHT  2200   83 78  210/ 19/ 20   N/A
BALT KEY BRIDGE  2148   83     210/ 13/ 17 1004.8F
COVE POINT       2148   86     240/ 15/ 23 1007.3F
LEWISETTA        2148   88 81  230/ 16/ 20 1007.2F
SOLOMONS ISLAND  2148   86 76  230/ 15/ 23   N/A
PINEY POINT      2142          240/  9/ 17   N/A

$$





USA.gov is the U.S. government's official web portal to all federal, state and local government web resources and services.